Akron, OH

11:52 PM EST on November 18, 2019 (GMT -0500)
Akron Fulton International

Weather History for KAKR - October, 2019

Change the Weather History Date:

Tuesday, October 22, 2019

  Actual Average (KCAK) Record (KCAK)
Temperature  
Mean Temperature 60 °F -  
Max Temperature 66 °F 59 °F 80 °F (1920)
Min Temperature 51 °F 40 °F 26 °F (1997)
Degree Days  
Heating Degree Days 6    
Growing Degree Days 10 (Base 50)    
Moisture  
Dew Point 50 °F    
Average Humidity 67    
Maximum Humidity 87    
Minimum Humidity 38    
Precipitation  
Precipitation 0.05 in - - ()
Sea Level Pressure  
Sea Level Pressure 29.76 in    
Wind  
Wind Speed 12 mph (SW)    
Max Wind Speed 23 mph    
Max Gust Speed 34 mph    
Visibility 10 miles    
Events Rain    
Averages and records for this station are not official NWS values.
T = Trace of Precipitation, MM = Missing Value Source: NWS Daily Summary

Daily Weather History Graph

Daily Weather History Graph

Search for Another Location

Airport or City:

Astronomy

Oct. 22, 2019 Rise Set
Actual Time 7:44 AM EDT 6:35 PM EDT
Civil Twilight 7:16 AM EDT 7:03 PM EDT
Nautical Twilight 6:44 AM EDT 7:35 PM EDT
Astronomical Twilight 6:12 AM EDT 8:07 PM EDT
Moon 12:49 AM EDT (10/22) 3:47 PM EDT (10/22)
Length of Visible Light 11h 46m
Length of Day
10h 50m
Last Quarter, 37% of the Moon is Illuminated
Oct 22
Last Quarter
Oct 27
New
Nov 4
First Quarter
Nov 12
Full
Nov 19
Last Quarter

Hourly Weather History & Observations

Time (EDT) Temp. Dew Point Humidity Pressure Visibility Wind Dir Wind Speed Gust Speed Precip Events Conditions
12:18 AM 66.0 °F 60.1 °F 81% 29.79 in 8.0 mi SW 13.8 mph 24.2 mph 0.00 in Rain Light Rain
12:38 AM 64.9 °F 60.1 °F 84% 29.79 in 7.0 mi SSW 10.4 mph - 0.00 in Rain Light Rain
12:54 AM 64.9 °F 60.1 °F 84% 29.76 in 6.0 mi SSW 12.7 mph - 0.00 in Rain Light Rain
1:36 AM 64.0 °F 59.0 °F 84% 29.76 in 10.0 mi South 11.5 mph 24.2 mph 0.01 in Rain Light Rain
1:54 AM 64.0 °F 59.0 °F 84% 29.75 in 10.0 mi South 11.5 mph - 0.01 in Rain Light Rain
2:54 AM 63.0 °F 57.9 °F 84% 29.75 in 10.0 mi SW 11.5 mph - 0.00 in Rain Light Rain
3:54 AM 63.0 °F 57.9 °F 84% 29.74 in 10.0 mi SSW 10.4 mph - 0.00 in Rain Light Rain
4:54 AM 63.0 °F 57.9 °F 84% 29.73 in 10.0 mi SSW 9.2 mph - 0.00 in Rain Light Rain
6:54 AM 62.1 °F 57.9 °F 86% 29.75 in 8.0 mi SSW 9.2 mph - 0.02 in Rain Light Rain
7:54 AM 61.0 °F 57.0 °F 87% 29.71 in 10.0 mi South 6.9 mph - 0.02 in Rain Light Rain
8:54 AM 61.0 °F 55.0 °F 81% 29.75 in 10.0 mi SSW 12.7 mph - 0.00 in Rain Light Rain
9:54 AM 60.1 °F 55.0 °F 83% 29.73 in 10.0 mi SW 11.5 mph - 0.00 in Rain Light Rain
10:04 AM 60.1 °F 55.0 °F 83% 29.75 in 10.0 mi SSW 11.5 mph - 0.00 in   Overcast
10:54 AM 59.0 °F 53.1 °F 81% 29.73 in 10.0 mi SSW 11.5 mph - 0.00 in   Overcast
11:44 AM 62.1 °F 53.1 °F 72% 29.73 in 10.0 mi SSW 16.1 mph - N/A   Scattered Clouds
11:54 AM 62.1 °F 53.1 °F 72% 29.72 in 10.0 mi SSW 16.1 mph 21.9 mph N/A   Mostly Cloudy
12:54 PM 64.9 °F 48.9 °F 56% 29.71 in 10.0 mi SSW 23.0 mph 34.5 mph N/A   Mostly Cloudy
1:54 PM 66.9 °F 42.1 °F 40% 29.70 in 10.0 mi SW 19.6 mph 31.1 mph N/A   Clear
2:54 PM 64.9 °F 39.9 °F 40% 29.68 in 10.0 mi SW 15.0 mph - N/A   Mostly Cloudy
3:54 PM 66.0 °F 39.9 °F 38% 29.71 in 10.0 mi SW 16.1 mph 27.6 mph N/A   Mostly Cloudy
4:54 PM 64.0 °F 39.0 °F 40% 29.72 in 10.0 mi WSW 16.1 mph 23.0 mph N/A   Mostly Cloudy
5:54 PM 61.0 °F 39.0 °F 44% 29.75 in 10.0 mi WSW 12.7 mph - N/A   Mostly Cloudy
6:54 PM 57.9 °F 39.0 °F 49% 29.79 in 10.0 mi WSW 8.1 mph - N/A   Mostly Cloudy
7:54 PM 55.9 °F 37.9 °F 51% 29.82 in 10.0 mi WSW 9.2 mph - N/A   Mostly Cloudy
8:54 PM 57.0 °F 37.0 °F 47% 29.83 in 10.0 mi SW 10.4 mph - N/A   Overcast
9:54 PM 55.0 °F 37.0 °F 51% 29.85 in 10.0 mi SW 9.2 mph - N/A   Clear
10:54 PM 53.1 °F 37.9 °F 57% 29.87 in 10.0 mi WSW 8.1 mph - N/A   Scattered Clouds
11:54 PM 51.1 °F 37.9 °F 61% 29.87 in 10.0 mi WSW 5.8 mph - N/A   Clear